Regional Weather Roundup
Issued by NWS Upton, NY

Current Version | Previous Version | Text Only | Print | Product List | Glossary On
Versions: 1 2 3 4 5 6 7 8 9 10 11 12 13 14 15 16 17 18 19 20 21 22 23 24 25 26 27 28 29 30 31 32 33 34 35 36 37 38 39 40 41 42 43 44 45 46 47 48 49 50
000
ASUS41 KOKX 051418
RWROKX

REGIONAL WEATHER ROUNDUP
NATIONAL WEATHER SERVICE NEW YORK NY
1000 AM EDT SUN JUL 05 2015

NOTE: "FAIR" INDICATES FEW OR NO CLOUDS BELOW 12,000 FEET WITH NO
SIGNIFICANT WEATHER AND/OR OBSTRUCTIONS TO VISIBILITY.

NYZ071-072-176-178-NJZ106-104-051500-
NEW YORK CITY METRO AREA


CITY           SKY/WX    TMP DP  RH WIND       PRES   REMARKS
CENTRAL PARK   MOSUNNY   73  59  61 W3        30.16R
LAGUARDIA APRT PTSUNNY   74  61  63 NW5       30.12S
KENNEDY INTL   PTSUNNY   76  61  59 SW6       30.13S
NEWARK/LIBERTY PTSUNNY   76  62  62 W7        30.13R
BRNX BOT. GARD   N/A     75  59  57 W13       30.15R
TETERBORO      MOSUNNY   76  61  59 VRB3      30.11S
$$

NYZ177-179-078>081-051500-
LONG ISLAND NEW YORK

CITY           SKY/WX    TMP DP  RH WIND       PRES   REMARKS
FARMINGDALE    MOSUNNY   76  62  62 W6        30.13R
ISLIP          PTSUNNY   76  60  57 W3        30.11R
SHIRLEY        MOSUNNY   76  61  59 W7        30.13R
WESTHAMPTON    MOSUNNY   76  60  57 N9        30.14R
MONTAUK POINT    N/A     73  63  70 W7        30.13R
$$

NYZ052-065-067-051500-
HUDSON VALLEY

CITY           SKY/WX    TMP DP  RH WIND       PRES   REMARKS
WHITE PLAINS   MOSUNNY   73  62  68 NW6       30.13R
NEWBURGH       SUNNY     72  64  78 CALM      30.14S
MONTGOMERY     SUNNY     73  63  70 SW3       30.13S
POUGHKEEPSIE   SUNNY     70  62  76 CALM      30.12F
ALBANY         MOSUNNY   72  61  68 CALM      30.12S
$$

NJZ001-105-106-008-010-013-015-019>022-104-051500-
NEW JERSEY

CITY           SKY/WX    TMP DP  RH WIND       PRES   REMARKS
NEWARK/LIBERTY PTSUNNY   76  62  62 W7        30.13R
TETERBORO      MOSUNNY   76  61  59 VRB3      30.11S
CALDWELL       MOSUNNY   73  61  65 NW5       30.14R
MORRISTOWN     PTSUNNY   75  66  73 NW7       30.14R
SOMERVILLE     MOSUNNY   74  63  68 CALM      30.12S
SUSSEX         CLOUDY    69  62  78 S5        30.16R
ANDOVER          N/A     68  62  81 CALM      30.17R
TRENTON        MOSUNNY   73  63  70 NW5       30.14S
MILLVILLE      SUNNY     74  63  68 CALM      30.14S
ATLANTIC CITY  SUNNY     76  61  59 CALM      30.14S
WRIGHTSTOWN    MOSUNNY   76  63  65 W3        30.12S
TOMS RIVER     SUNNY     77  59  53 CALM      30.14S
BELMAR         MOSUNNY   75  61  60 NW5       30.14S
$$

PAZ047>061-062-071-051500-
EASTERN PENNSYLVANIA

CITY           SKY/WX    TMP DP  RH WIND       PRES   REMARKS
PHILADELPHIA   PTSUNNY   75  59  57 VRB3      30.15R
ALLENTOWN      MOSUNNY   71  63  75 N7        30.16R
SCRANTON       CLOUDY    66  59  78 VRB3      30.18S
$$

CTZ002-004>006-009-010-012-RIZ004-006-007-MAZ004-011-015-051500-
SOUTHERN NEW ENGLAND
 IN CT

CITY           SKY/WX    TMP DP  RH WIND       PRES   REMARKS
BRADLEY INTL   MOSUNNY   72  61  68 CALM      30.10R
HARTFORD       SUNNY     74  62  66 VRB7      30.10S
DANBURY        SUNNY     72  60  66 CALM      30.14R
WTRBRY/OXFORD  SUNNY     70  61  73 CALM      30.15R
BRIDGEPORT     SUNNY     73  62  68 SW9       30.12R
MERIDEN        SUNNY     75  61  61 CALM      30.11S
NEW HAVEN      SUNNY     72  62  71 W3        30.12R
CHESTER        FAIR      73  63  68 W5        30.12F
GROTON         SUNNY     70  62  76 SW10      30.09F
WILLIMANTIC    SUNNY     73  60  63 W5        30.10S

 IN RI

CITY           SKY/WX    TMP DP  RH WIND       PRES   REMARKS
PROVIDENCE     SUNNY     74  61  63 SW5       30.09S
BLOCK ISLAND   SUNNY     72  61  68 W12       30.11S
WESTERLY       SUNNY     73  61  65 SW7       30.11R

 IN MA

CITY           SKY/WX    TMP DP  RH WIND       PRES   REMARKS
BOSTON         SUNNY     75  60  59 NW10      30.07S
WORCESTER      SUNNY     72  58  61 W8        30.11S
WESTFIELD      SUNNY     74  61  63 VRB3      30.10S
PROVINCETOWN   SUNNY     72  12  10 W9        30.07S
NANTUCKET      SUNNY     72  61  68 W13       30.09R
$$

ANZ330-335-338-340-345-350-353-355-051500-
COASTAL MARINE OBSERVATIONS


STATION/POSITION TIME  SKY/WX   TEMP    WIND        PRES    VSBY  WAVE
                                AIR SEA DIR/SP/G                  HT/PER
                 (UTC)          (F)     (DEG/KT/KT) (MB)    (MI)  (FT/S)
NY HARB ENTRANCE 1350            70 69  290/  4/  6 1019.8          4/ 8
4S FIRE IS       1303               70                N/A           4/ 8
20S FIRE ISLAND  1350            70 69  280/  6/  8 1020.0          4/ 8
GREAT SOUTH BAY  1300            72 74  280/  4/  6   N/A
23SW MTP         1350            68 68  260/  8/ 10 1019.7          4/ 9
HUDSON CANYON    NOT AVBL
KINGS POINT      1300            71 74  290/  2/  2 1019.5
CENTRAL LI SOUND NOT AVBL
EASTERN LI SOUND 1300            66 65  250/  8/ 10   N/A
ROBBINS REEF     1300            70     240/  6/  8 1019.1
$$


>>>>>>>>>>>>>>>>>>>>>>>>>>>> KEY <<<<<<<<<<<<<<<<<<<<<<<<<<<
>                                                          <
>     SKY/WX - SKY CONDITION/PRESENT WEATHER               <
>     TMP    - TEMPERATURE IN FAHRENHEIT                   <
>     DP     - DEWPOINT IN FAHRENHEIT                      <
>     RH     - RELATIVE HUMIDITY IN PERCENT                <
>     WIND   - DIRECTION AND SPEED IN MPH                  <
>     PRES   - MEAN SEA LEVEL PRESSURE IN INCHES OF HG     <
>     WCI    - WIND CHILL INDEX                            <
>     VSB    - VISIBILITY IN MILES                         <
>     HX     - HEAT INDEX                                  <
>     TC     - TEMPERATURE IN CELSIUS                      <
>     VRB    - VARIABLE WIND DIRECTION                     <
>                                                          <
>>>>>>>>>>>>>>>>>>>>>>>>>>>> KEY <<<<<<<<<<<<<<<<<<<<<<<<<<<




USA.gov is the U.S. government's official web portal to all federal, state and local government web resources and services.